| time (UTC) | temp F | wind direction | speed knots | gust knots | rain 1hr in | rain 24hr in | rain mn in | humidity % | barometer mb |
| 20260506030903 | 49 | 14 | 1.7 | 2.6 | 0.00 | 0.00 | 0.00 | 80 | 1016.1 |
| 20260506030003 | 49 | 62 | 1.7 | 2.6 | 0.00 | 0.00 | 0.00 | 80 | 1015.8 |
| 20260506025403 | 49 | 66 | 2.6 | 2.6 | 0.00 | 0.00 | 0.00 | 80 | 1015.9 |
| 20260506024503 | 49 | 42 | 1.7 | 2.6 | 0.00 | 0.00 | 0.00 | 79 | 1016.2 |
| 20260506023603 | 49 | 58 | 1.7 | 2.6 | 0.00 | 0.00 | 0.00 | 79 | 1016.0 |
| 20260506022703 | 49 | 42 | 1.7 | 2.6 | 0.00 | 0.00 | 0.00 | 78 | 1015.8 |
| 20260506021803 | 49 | 32 | 1.7 | 3.5 | 0.00 | 0.00 | 0.00 | 78 | 1016.1 |
| 20260506020903 | 49 | 22 | 2.6 | 3.5 | 0.00 | 0.00 | 0.00 | 77 | 1015.9 |
| 20260506020003 | 49 | 25 | 1.7 | 2.6 | 0.00 | 0.00 | 0.00 | 77 | 1015.9 |
| 20260506015613 | 49 | 37 | 2.6 | 2.6 | 0.00 | 0.00 | 0.00 | 76 | 1016.1 |
| 20260506014503 | 49 | 32 | 1.7 | 2.6 | 0.00 | 0.00 | 0.00 | 76 | 1016.0 |
| 20260506013603 | 50 | 58 | 1.7 | 2.6 | 0.00 | 0.00 | 0.00 | 76 | 1016.0 |
| 20260506012703 | 50 | 38 | 1.7 | 2.6 | 0.00 | 0.00 | 0.00 | 76 | 1016.0 |
| 20260506011803 | 49 | 354 | 1.7 | 1.7 | 0.00 | 0.00 | 0.00 | 75 | 1016.1 |
| 20260506011114 | 50 | 352 | 1.7 | 2.6 | 0.00 | 0.00 | 0.00 | 75 | 1016.3 |
| 20260506010004 | 50 | 346 | 2.6 | 3.5 | 0.00 | 0.00 | 0.00 | 76 | 1016.2 |
| 20260506005403 | 50 | 25 | 2.6 | 3.5 | 0.00 | 0.00 | 0.00 | 76 | 1016.3 |
| 20260506004503 | 50 | 27 | 1.7 | 3.5 | 0.00 | 0.00 | 0.00 | 76 | 1016.5 |
| 20260506003603 | 50 | 69 | 1.7 | 2.6 | 0.00 | 0.00 | 0.00 | 75 | 1016.5 |
| 20260506002703 | 50 | 55 | 1.7 | 2.6 | 0.00 | 0.00 | 0.00 | 75 | 1016.5 |
| 20260506001803 | 50 | 18 | 1.7 | 3.5 | 0.00 | 0.00 | 0.00 | 75 | 1016.4 |
| 20260506000903 | 50 | 55 | 1.7 | 3.5 | 0.00 | 0.00 | 0.00 | 75 | 1016.3 |
| 20260506000003 | 50 | 48 | 1.7 | 3.5 | 0.00 | 0.00 | 0.00 | 74 | 1016.4 |
| 20260505235403 | 50 | 54 | 1.7 | 2.6 | 0.00 | 0.00 | 0.00 | 74 | 1016.7 |
| 20260505234503 | 50 | 28 | 1.7 | 2.6 | 0.00 | 0.00 | 0.00 | 74 | 1016.3 |
| 20260505233603 | 50 | 16 | 1.7 | 2.6 | 0.00 | 0.00 | 0.00 | 74 | 1016.4 |
| 20260505232703 | 50 | 6 | 1.7 | 2.6 | 0.00 | 0.00 | 0.00 | 73 | 1016.6 |
| 20260505231803 | 51 | 348 | 2.6 | 3.5 | 0.00 | 0.00 | 0.00 | 73 | 1016.2 |
| 20260505231113 | 51 | 351 | 1.7 | 3.5 | 0.00 | 0.00 | 0.00 | 73 | 1016.5 |
| 20260505230004 | 51 | 342 | 2.6 | 4.3 | 0.00 | 0.00 | 0.00 | 72 | 1016.6 |
| 20260505225403 | 51 | 5 | 1.7 | 1.7 | 0.00 | 0.00 | 0.00 | 72 | 1016.8 |
| 20260505224503 | 51 | 39 | 1.7 | 2.6 | 0.00 | 0.00 | 0.00 | 72 | 1016.7 |
| 20260505223603 | 51 | 57 | 1.7 | 2.6 | 0.00 | 0.00 | 0.00 | 72 | 1016.6 |
| 20260505222703 | 51 | 66 | 1.7 | 2.6 | 0.00 | 0.00 | 0.00 | 71 | 1016.7 |
| 20260505222013 | 51 | 11 | 1.7 | 2.6 | 0.00 | 0.00 | 0.00 | 71 | 1016.7 |
| 20260505220903 | 51 | 12 | 1.7 | 3.5 | 0.00 | 0.00 | 0.00 | 71 | 1016.6 |
| 20260505220003 | 51 | 5 | 2.6 | 3.5 | 0.00 | 0.00 | 0.00 | 71 | 1016.6 |
| 20260505215403 | 51 | 74 | 1.7 | 2.6 | 0.00 | 0.00 | 0.00 | 71 | 1016.6 |
| 20260505214713 | 51 | 40 | 2.6 | 3.5 | 0.00 | 0.00 | 0.00 | 70 | 1016.6 |
| 20260505213603 | 51 | 40 | 2.6 | 3.5 | 0.00 | 0.00 | 0.00 | 70 | 1016.7 |
| 20260505212703 | 51 | 54 | 2.6 | 3.5 | 0.00 | 0.00 | 0.00 | 70 | 1016.6 |
| 20260505211803 | 52 | 38 | 2.6 | 4.3 | 0.00 | 0.00 | 0.00 | 70 | 1016.9 |
| 20260505210903 | 52 | 85 | 2.6 | 3.5 | 0.00 | 0.00 | 0.00 | 70 | 1016.8 |
| 20260505210003 | 52 | 98 | 2.6 | 4.3 | 0.00 | 0.00 | 0.00 | 70 | 1016.8 |
| 20260505205403 | 52 | 79 | 2.6 | 4.3 | 0.00 | 0.00 | 0.00 | 70 | 1016.7 |
| 20260505204503 | 52 | 359 | 3.5 | 4.3 | 0.00 | 0.00 | 0.00 | 70 | 1016.7 |
| 20260505203603 | 52 | 19 | 2.6 | 4.3 | 0.00 | 0.00 | 0.00 | 69 | 1016.6 |
| 20260505202913 | 53 | 13 | 2.6 | 3.5 | 0.00 | 0.00 | 0.00 | 69 | 1016.7 |
| 20260505202013 | 53 | 65 | 2.6 | 3.5 | 0.00 | 0.00 | 0.00 | 68 | 1016.6 |
| 20260505200903 | 53 | 27 | 2.6 | 3.5 | 0.00 | 0.00 | 0.00 | 67 | 1016.3 |
| 20260505200003 | 53 | 68 | 2.6 | 3.5 | 0.00 | 0.00 | 0.00 | 67 | 1016.3 |
| 20260505195613 | 53 | 95 | 2.6 | 3.5 | 0.00 | 0.00 | 0.00 | 67 | 1016.4 |
| 20260505194503 | 54 | 68 | 3.5 | 4.3 | 0.00 | 0.00 | 0.00 | 66 | 1016.1 |
| 20260505193603 | 54 | 52 | 3.5 | 4.3 | 0.00 | 0.00 | 0.00 | 66 | 1016.0 |
| 20260505192913 | 54 | 53 | 3.5 | 5.2 | 0.00 | 0.00 | 0.00 | 66 | 1016.1 |
| 20260505191803 | 55 | 46 | 2.6 | 3.5 | 0.00 | 0.00 | 0.00 | 62 | 1016.0 |
| 20260505191113 | 55 | 4 | 2.6 | 3.5 | 0.00 | 0.00 | 0.00 | 62 | 1016.1 |
| 20260505190213 | 55 | 338 | 3.5 | 5.2 | 0.00 | 0.00 | 0.00 | 61 | 1015.9 |
| 20260505185612 | 55 | 327 | 3.5 | 4.3 | 0.00 | 0.00 | 0.00 | 61 | 1016.1 |
| 20260505184503 | 55 | 25 | 2.6 | 3.5 | 0.00 | 0.00 | 0.00 | 61 | 1016.0 |
| 20260505183813 | 55 | 332 | 3.5 | 6.1 | 0.00 | 0.00 | 0.00 | 61 | 1015.9 |
| 20260505182703 | 55 | 335 | 3.5 | 6.1 | 0.00 | 0.00 | 0.00 | 61 | 1015.8 |
| 20260505181803 | 56 | 317 | 4.3 | 7.0 | 0.00 | 0.00 | 0.00 | 61 | 1015.7 |
| 20260505180903 | 56 | 327 | 5.2 | 7.8 | 0.00 | 0.00 | 0.00 | 60 | 1015.8 |
| 20260505180003 | 57 | 334 | 5.2 | 7.8 | 0.00 | 0.00 | 0.00 | 56 | 1016.0 |
| 20260505175403 | 57 | 140 | 5.2 | 7.0 | 0.00 | 0.00 | 0.00 | 55 | 1015.8 |
| 20260505174504 | 58 | 319 | 5.2 | 9.6 | 0.00 | 0.00 | 0.00 | 55 | 1015.7 |
| 20260505173813 | 58 | 325 | 5.2 | 9.6 | 0.00 | 0.00 | 0.00 | 54 | 1015.8 |
| 20260505172703 | 58 | 336 | 7.0 | 9.6 | 0.00 | 0.00 | 0.00 | 52 | 1015.8 |
| 20260505171803 | 58 | 12 | 6.1 | 7.8 | 0.00 | 0.00 | 0.00 | 52 | 1016.1 |
| 20260505170903 | 59 | 54 | 6.1 | 9.6 | 0.00 | 0.00 | 0.00 | 51 | 1016.0 |
| 20260505170212 | 60 | 22 | 5.2 | 9.6 | 0.00 | 0.00 | 0.00 | 51 | 1015.7 |
| 20260505165403 | 60 | 333 | 6.1 | 9.6 | 0.00 | 0.00 | 0.00 | 51 | 1016.0 |
| 20260505164503 | 60 | 15 | 6.1 | 8.7 | 0.00 | 0.00 | 0.00 | 51 | 1015.8 |
| 20260505163603 | 61 | 19 | 5.2 | 8.7 | 0.00 | 0.00 | 0.00 | 50 | 1015.9 |
| 20260505162703 | 60 | 334 | 7.0 | 9.6 | 0.00 | 0.00 | 0.00 | 48 | 1015.8 |
| 20260505161803 | 60 | 319 | 6.1 | 7.8 | 0.00 | 0.00 | 0.00 | 50 | 1015.8 |
| 20260505160903 | 61 | 49 | 5.2 | 7.0 | 0.00 | 0.00 | 0.00 | 50 | 1015.8 |
| 20260505152703 | 61 | 25 | 6.1 | 7.8 | 0.00 | 0.00 | 0.00 | 50 | 1016.0 |
| 20260505152013 | 62 | 346 | 4.3 | 7.8 | 0.00 | 0.00 | 0.00 | 48 | 1016.0 |
| 20260505150903 | 61 | 30 | 4.3 | 7.0 | 0.00 | 0.00 | 0.00 | 50 | 1016.1 |
| 20260505150213 | 61 | 41 | 5.2 | 7.0 | 0.00 | 0.00 | 0.00 | 49 | 1016.0 |
| 20260505140213 | 64 | 47 | 6.1 | 8.7 | 0.00 | 0.00 | 0.00 | 46 | 1016.3 |
| 20260505124713 | 64 | 350 | 6.1 | 7.8 | 0.00 | 0.00 | 0.00 | 45 | 1016.6 |
| 20260505123603 | 64 | 346 | 5.2 | 7.8 | 0.00 | 0.00 | 0.00 | 46 | 1016.5 |
| 20260505122703 | 63 | 10 | 7.0 | 9.6 | 0.00 | 0.00 | 0.00 | 51 | 1016.5 |
| 20260505121803 | 62 | 34 | 6.1 | 8.7 | 0.00 | 0.00 | 0.00 | 52 | 1016.7 |
| 20260505120903 | 61 | 8 | 6.1 | 7.0 | 0.00 | 0.00 | 0.00 | 51 | 1016.7 |
| 20260505120212 | 62 | 47 | 6.1 | 8.7 | 0.00 | 0.00 | 0.00 | 53 | 1016.6 |
| 20260505115403 | 61 | 12 | 6.1 | 9.6 | 0.00 | 0.00 | 0.00 | 51 | 1016.5 |
| 20260505114503 | 62 | 9 | 6.1 | 9.6 | 0.00 | 0.00 | 0.00 | 53 | 1016.5 |
| 20260505113603 | 63 | 91 | 6.1 | 8.7 | 0.00 | 0.00 | 0.00 | 51 | 1016.6 |
| 20260505112703 | 63 | 21 | 7.0 | 8.7 | 0.00 | 0.00 | 0.00 | 52 | 1016.8 |
| 20260505111803 | 62 | 25 | 7.0 | 9.6 | 0.00 | 0.00 | 0.00 | 52 | 1016.8 |
| 20260505110903 | 62 | 349 | 6.1 | 8.7 | 0.00 | 0.00 | 0.00 | 52 | 1016.7 |
| 20260505101803 | 60 | 58 | 6.1 | 9.6 | 0.00 | 0.00 | 0.00 | 56 | 1017.1 |
| 20260505100903 | 59 | 61 | 6.1 | 7.8 | 0.00 | 0.00 | 0.00 | 56 | 1017.1 |
| 20260505100003 | 59 | 47 | 6.1 | 7.8 | 0.00 | 0.00 | 0.00 | 60 | 1017.3 |
| 20260505095403 | 59 | 11 | 5.2 | 7.8 | 0.00 | 0.00 | 0.00 | 61 | 1017.1 |
| 20260505094503 | 59 | 83 | 4.3 | 7.0 | 0.00 | 0.00 | 0.00 | 65 | 1017.1 |
| 20260505093603 | 57 | 78 | 4.3 | 7.0 | 0.00 | 0.00 | 0.00 | 68 | 1017.0 |
| 20260505092703 | 56 | 5 | 4.3 | 7.0 | 0.00 | 0.00 | 0.00 | 69 | 1017.1 |
| 20260505091803 | 56 | 71 | 5.2 | 7.0 | 0.00 | 0.00 | 0.00 | 70 | 1017.1 |
| 20260505090903 | 54 | 37 | 4.3 | 7.0 | 0.00 | 0.00 | 0.00 | 72 | 1016.9 |
| 20260505090213 | 54 | 38 | 3.5 | 5.2 | 0.00 | 0.00 | 0.00 | 74 | 1017.1 |
| 20260505085403 | 54 | 116 | 4.3 | 8.7 | 0.00 | 0.00 | 0.00 | 74 | 1017.3 |
| 20260505084503 | 54 | 33 | 5.2 | 8.7 | 0.00 | 0.00 | 0.00 | 75 | 1017.3 |
| 20260505083603 | 55 | 349 | 5.2 | 7.0 | 0.00 | 0.00 | 0.00 | 73 | 1017.0 |
| 20260505082703 | 54 | 32 | 5.2 | 7.8 | 0.00 | 0.00 | 0.00 | 76 | 1017.3 |
| 20260505081803 | 54 | 33 | 4.3 | 5.2 | 0.00 | 0.00 | 0.00 | 81 | 1017.3 |
| 20260505080903 | 53 | 25 | 4.3 | 6.1 | 0.00 | 0.00 | 0.00 | 83 | 1017.1 |
| 20260505080004 | 53 | 41 | 4.3 | 6.1 | 0.00 | 0.00 | 0.00 | 83 | 1017.2 |
| 20260505075403 | 53 | 34 | 4.3 | 4.3 | 0.00 | 0.00 | 0.00 | 84 | 1017.4 |
| 20260505074503 | 53 | 357 | 3.5 | 5.2 | 0.00 | 0.00 | 0.00 | 84 | 1017.2 |
| 20260505073603 | 52 | 37 | 3.5 | 5.2 | 0.00 | 0.00 | 0.00 | 86 | 1017.3 |
| 20260505072703 | 52 | 43 | 3.5 | 4.3 | 0.00 | 0.00 | 0.00 | 87 | 1017.3 |
| 20260505071803 | 52 | 11 | 3.5 | 4.3 | 0.00 | 0.00 | 0.00 | 89 | 1017.3 |
| 20260505070903 | 51 | 360 | 2.6 | 3.5 | 0.00 | 0.00 | 0.00 | 90 | 1017.5 |
| 20260505070003 | 51 | 5 | 2.6 | 3.5 | 0.00 | 0.00 | 0.00 | 92 | 1017.5 |
| 20260505065403 | 51 | 10 | 2.6 | 3.5 | 0.00 | 0.00 | 0.00 | 92 | 1017.3 |
| 20260505064713 | 51 | 106 | 2.6 | 3.5 | 0.00 | 0.00 | 0.00 | 94 | 1017.2 |
| 20260505063603 | 50 | 33 | 2.6 | 3.5 | 0.00 | 0.00 | 0.00 | 95 | 1017.3 |
| 20260505062703 | 50 | 45 | 2.6 | 3.5 | 0.00 | 0.00 | 0.00 | 96 | 1017.1 |
| 20260505061803 | 50 | 75 | 2.6 | 3.5 | 0.00 | 0.00 | 0.00 | 96 | 1017.3 |
| 20260505060903 | 49 | 36 | 2.6 | 3.5 | 0.00 | 0.00 | 0.00 | 96 | 1017.1 |
| 20260505060003 | 49 | 63 | 2.6 | 2.6 | 0.00 | 0.00 | 0.00 | 96 | 1017.1 |
| 20260505055403 | 49 | 70 | 1.7 | 2.6 | 0.00 | 0.00 | 0.00 | 96 | 1017.2 |
| 20260505054713 | 49 | 64 | 1.7 | 2.6 | 0.00 | 0.00 | 0.00 | 96 | 1017.1 |
| 20260505053603 | 49 | 20 | 1.7 | 3.5 | 0.00 | 0.00 | 0.00 | 95 | 1016.9 |
| 20260505052703 | 48 | 9 | 0.9 | 1.7 | 0.00 | 0.00 | 0.00 | 95 | 1017.0 |
| 20260505051803 | 48 | 35 | 1.7 | 3.5 | 0.00 | 0.00 | 0.00 | 95 | 1017.0 |
| 20260505050903 | 48 | 45 | 1.7 | 2.6 | 0.00 | 0.00 | 0.00 | 95 | 1016.8 |
| 20260505040903 | 49 | 64 | 0.9 | 1.7 | 0.00 | 0.00 | 0.00 | 93 | 1017.0 |
| 20260505040004 | 49 | 64 | 1.7 | 2.6 | 0.00 | 0.00 | 0.00 | 93 | 1016.9 |
| 20260505035403 | 49 | 51 | 1.7 | 2.6 | 0.00 | 0.00 | 0.00 | 93 | 1017.0 |
| 20260505034503 | 49 | 58 | 1.7 | 2.6 | 0.00 | 0.00 | 0.00 | 93 | 1017.1 |
| 20260505033603 | 49 | 71 | 1.7 | 2.6 | 0.00 | 0.00 | 0.00 | 93 | 1017.0 |
| 20260505032703 | 50 | 72 | 1.7 | 2.6 | 0.00 | 0.00 | 0.00 | 93 | 1017.2 |
| 20260505031803 | 50 | 60 | 1.7 | 2.6 | 0.00 | 0.00 | 0.00 | 93 | 1016.9 |